Time,TemperatureF,DewpointF,PressureIn,WindDirection,WindDirectionDegrees,WindSpeedMPH,WindSpeedGustMPH,Humidity,HourlyPrecipIn,Conditions,Clouds,dailyrainin,SoftwareType,DateUTC
2013-08-18 00:01:00,52.5,52.0,25.81,NNW,337,1.9,4.0,97,0.00,,,0.00,Rainwise IP-100,2013-08-18 07:01:00,
2013-08-18 00:06:00,52.3,51.0,25.81,NNW,337,1.4,3.0,98,0.00,,,0.00,Rainwise IP-100,2013-08-18 07:06:00,
2013-08-18 00:11:00,52.2,51.0,25.81,NNE,22,1.6,2.0,98,0.00,,,0.00,Rainwise IP-100,2013-08-18 07:11:00,
2013-08-18 00:16:00,52.1,51.0,25.81,NNE,22,0.0,2.0,98,0.00,,,0.00,Rainwise IP-100,2013-08-18 07:16:00,
2013-08-18 00:21:00,52.1,51.0,25.81,NNE,22,1.2,0.0,98,0.00,,,0.00,Rainwise IP-100,2013-08-18 07:21:00,
2013-08-18 00:26:00,52.0,51.0,25.81,NNE,22,0.0,1.0,98,0.00,,,0.00,Rainwise IP-100,2013-08-18 07:26:00,
2013-08-18 00:31:00,52.0,51.0,25.81,NNE,22,1.4,1.4,98,0.00,,,0.00,Rainwise IP-100,2013-08-18 07:31:00,
2013-08-18 00:36:00,52.0,51.0,25.81,NNE,22,1.6,1.6,98,0.00,,,0.00,Rainwise IP-100,2013-08-18 07:36:00,
2013-08-18 00:41:00,52.0,51.0,25.81,NNW,337,1.6,3.0,98,0.00,,,0.00,Rainwise IP-100,2013-08-18 07:41:00,
2013-08-18 00:46:00,52.0,51.0,25.81,NNW,337,0.0,2.0,98,0.00,,,0.00,Rainwise IP-100,2013-08-18 07:46:00,
2013-08-18 00:51:00,51.9,51.0,25.81,NNW,337,1.4,2.0,97,0.00,,,0.00,Rainwise IP-100,2013-08-18 07:51:00,
2013-08-18 00:56:00,51.9,50.0,25.81,NNW,337,0.0,1.0,96,0.00,,,0.00,Rainwise IP-100,2013-08-18 07:56:00,
2013-08-18 01:01:00,51.8,50.0,25.81,NNW,337,0.0,1.0,95,0.00,,,0.00,Rainwise IP-100,2013-08-18 08:01:00,
2013-08-18 01:06:00,51.8,50.0,25.81,NNW,337,0.0,0.0,95,0.00,,,0.00,Rainwise IP-100,2013-08-18 08:06:00,
2013-08-18 01:11:00,51.8,50.0,25.81,NNW,337,1.4,1.4,94,0.00,,,0.00,Rainwise IP-100,2013-08-18 08:11:00,
2013-08-18 01:16:00,51.8,50.0,25.81,NNW,337,0.0,1.0,92,0.00,,,0.00,Rainwise IP-100,2013-08-18 08:16:00,
2013-08-18 01:21:00,51.8,50.0,25.81,NNW,337,0.0,1.0,92,0.00,,,0.00,Rainwise IP-100,2013-08-18 08:21:00,
2013-08-18 01:26:00,51.7,50.0,25.81,NNW,337,0.0,0.0,92,0.00,,,0.00,Rainwise IP-100,2013-08-18 08:26:00,
2013-08-18 01:31:00,51.6,50.0,25.81,NNW,337,0.0,1.0,93,0.00,,,0.00,Rainwise IP-100,2013-08-18 08:31:00,
2013-08-18 01:36:00,51.5,50.0,25.81,NNW,337,0.0,0.0,93,0.00,,,0.00,Rainwise IP-100,2013-08-18 08:36:00,
2013-08-18 01:41:00,51.4,50.0,25.80,NNW,337,0.0,0.0,94,0.00,,,0.00,Rainwise IP-100,2013-08-18 08:41:00,
2013-08-18 01:46:00,51.3,50.0,25.81,NNW,337,0.0,0.0,94,0.00,,,0.00,Rainwise IP-100,2013-08-18 08:46:00,
2013-08-18 01:51:00,51.2,50.0,25.80,NNW,337,0.0,0.0,94,0.00,,,0.00,Rainwise IP-100,2013-08-18 08:51:00,
2013-08-18 01:56:00,51.0,50.0,25.80,NNW,337,0.0,0.0,95,0.00,,,0.00,Rainwise IP-100,2013-08-18 08:56:00,
2013-08-18 02:01:00,50.8,49.0,25.81,NNW,337,0.0,0.0,95,0.00,,,0.00,Rainwise IP-100,2013-08-18 09:01:00,
2013-08-18 02:06:00,50.6,49.0,25.81,NNW,337,1.2,1.2,95,0.00,,,0.00,Rainwise IP-100,2013-08-18 09:06:00,
2013-08-18 02:11:00,50.3,48.0,25.81,NNW,337,0.0,1.0,95,0.00,,,0.00,Rainwise IP-100,2013-08-18 09:11:00,
2013-08-18 02:16:00,49.9,48.0,25.81,NNW,337,0.0,0.0,95,0.00,,,0.00,Rainwise IP-100,2013-08-18 09:16:00,
2013-08-18 02:21:00,49.4,48.0,25.80,NNW,337,0.0,1.0,96,0.00,,,0.00,Rainwise IP-100,2013-08-18 09:21:00,
2013-08-18 02:26:00,49.1,48.0,25.80,SE,135,3.0,3.0,96,0.00,,,0.00,Rainwise IP-100,2013-08-18 09:26:00,
2013-08-18 02:31:00,48.8,48.0,25.80,ESE,112,0.0,3.0,96,0.00,,,0.00,Rainwise IP-100,2013-08-18 09:31:00,
2013-08-18 02:36:00,48.6,48.0,25.80,ESE,112,0.0,1.0,96,0.00,,,0.00,Rainwise IP-100,2013-08-18 09:36:00,
2013-08-18 02:41:00,48.6,48.0,25.80,ESE,112,0.0,1.0,96,0.00,,,0.00,Rainwise IP-100,2013-08-18 09:41:00,
2013-08-18 02:46:00,48.5,48.0,25.80,ESE,112,0.0,2.0,96,0.00,,,0.00,Rainwise IP-100,2013-08-18 09:46:00,
2013-08-18 02:51:00,48.4,47.0,25.80,ESE,112,1.2,1.2,96,0.00,,,0.00,Rainwise IP-100,2013-08-18 09:51:00,
2013-08-18 02:56:00,48.3,47.0,25.80,ESE,112,0.0,2.0,96,0.00,,,0.00,Rainwise IP-100,2013-08-18 09:56:00,
2013-08-18 03:01:00,48.1,47.0,25.80,ESE,112,0.0,2.0,96,0.00,,,0.00,Rainwise IP-100,2013-08-18 10:01:00,
2013-08-18 03:06:00,47.7,47.0,25.80,ESE,112,1.6,2.0,96,0.00,,,0.00,Rainwise IP-100,2013-08-18 10:06:00,
2013-08-18 03:11:00,47.4,47.0,25.80,ESE,112,1.2,1.2,96,0.00,,,0.00,Rainwise IP-100,2013-08-18 10:11:00,
2013-08-18 03:16:00,47.0,46.0,25.80,ESE,112,0.0,2.0,96,0.00,,,0.00,Rainwise IP-100,2013-08-18 10:16:00,
2013-08-18 03:21:00,46.7,46.0,25.80,ESE,112,0.0,2.0,96,0.00,,,0.00,Rainwise IP-100,2013-08-18 10:21:00,
2013-08-18 03:26:00,46.7,46.0,25.80,ESE,112,1.9,2.0,96,0.00,,,0.00,Rainwise IP-100,2013-08-18 10:26:00,
2013-08-18 03:31:00,46.6,46.0,25.80,ESE,112,2.6,2.6,96,0.00,,,0.00,Rainwise IP-100,2013-08-18 10:31:00,
2013-08-18 03:36:00,46.5,46.0,25.80,ESE,112,0.0,2.0,96,0.00,,,0.00,Rainwise IP-100,2013-08-18 10:36:00,
2013-08-18 03:41:00,46.3,45.0,25.80,ESE,112,1.4,0.0,96,0.00,,,0.00,Rainwise IP-100,2013-08-18 10:41:00,
2013-08-18 03:46:00,46.4,45.0,25.81,ESE,112,1.6,1.6,97,0.00,,,0.00,Rainwise IP-100,2013-08-18 10:46:00,
2013-08-18 03:51:00,46.6,46.0,25.80,ESE,112,0.0,2.0,97,0.00,,,0.00,Rainwise IP-100,2013-08-18 10:51:00,
2013-08-18 03:56:00,46.8,46.0,25.80,ESE,112,1.4,2.0,97,0.00,,,0.00,Rainwise IP-100,2013-08-18 10:56:00,
2013-08-18 04:01:00,47.0,46.0,25.80,ESE,112,1.2,1.2,97,0.00,,,0.00,Rainwise IP-100,2013-08-18 11:01:00,
2013-08-18 04:06:00,47.2,46.0,25.80,ESE,112,0.0,1.0,97,0.00,,,0.00,Rainwise IP-100,2013-08-18 11:06:00,
2013-08-18 04:11:00,47.3,46.0,25.80,ESE,112,0.0,2.0,97,0.00,,,0.00,Rainwise IP-100,2013-08-18 11:11:00,
2013-08-18 04:16:00,47.4,47.0,25.80,SE,135,0.0,2.0,97,0.00,,,0.00,Rainwise IP-100,2013-08-18 11:16:00,
2013-08-18 04:21:00,47.5,47.0,25.80,SE,135,0.0,1.0,97,0.00,,,0.00,Rainwise IP-100,2013-08-18 11:21:00,
2013-08-18 04:26:00,47.4,47.0,25.80,SE,135,0.0,0.0,97,0.00,,,0.00,Rainwise IP-100,2013-08-18 11:26:00,
2013-08-18 04:31:00,47.2,46.0,25.81,SE,135,0.0,1.0,96,0.00,,,0.00,Rainwise IP-100,2013-08-18 11:31:00,
2013-08-18 04:36:00,46.9,46.0,25.81,SE,135,2.1,2.1,96,0.00,,,0.00,Rainwise IP-100,2013-08-18 11:36:00,
2013-08-18 04:41:00,46.6,46.0,25.80,SE,135,0.0,2.0,97,0.00,,,0.00,Rainwise IP-100,2013-08-18 11:41:00,
2013-08-18 04:46:00,46.5,46.0,25.80,SE,135,0.0,1.0,97,0.00,,,0.00,Rainwise IP-100,2013-08-18 11:46:00,
2013-08-18 04:51:00,46.4,45.0,25.80,SSE,157,0.0,1.0,97,0.00,,,0.00,Rainwise IP-100,2013-08-18 11:51:00,
2013-08-18 04:56:00,46.4,45.0,25.80,SSE,157,0.0,0.0,97,0.00,,,0.00,Rainwise IP-100,2013-08-18 11:56:00,
2013-08-18 05:01:00,46.3,45.0,25.81,SSE,157,0.0,1.0,97,0.00,,,0.00,Rainwise IP-100,2013-08-18 12:01:00,
2013-08-18 05:06:00,46.3,45.0,25.81,SE,135,0.0,3.0,96,0.00,,,0.00,Rainwise IP-100,2013-08-18 12:06:00,
2013-08-18 05:11:00,46.3,45.0,25.80,SE,135,0.0,1.0,96,0.00,,,0.00,Rainwise IP-100,2013-08-18 12:11:00,
2013-08-18 05:16:00,46.3,45.0,25.80,SSW,202,0.0,4.0,96,0.00,,,0.00,Rainwise IP-100,2013-08-18 12:16:00,
2013-08-18 05:21:00,46.3,45.0,25.80,South,180,1.2,1.2,96,0.00,,,0.00,Rainwise IP-100,2013-08-18 12:21:00,
2013-08-18 05:26:00,46.2,45.0,25.80,SSE,157,0.0,1.0,96,0.00,,,0.00,Rainwise IP-100,2013-08-18 12:26:00,
2013-08-18 05:31:00,46.0,45.0,25.80,SE,135,1.2,2.0,97,0.00,,,0.00,Rainwise IP-100,2013-08-18 12:31:00,
2013-08-18 05:36:00,46.0,45.0,25.80,SE,135,0.0,2.0,97,0.00,,,0.00,Rainwise IP-100,2013-08-18 12:36:00,
2013-08-18 05:41:00,45.8,45.0,25.81,South,180,0.0,2.0,97,0.00,,,0.00,Rainwise IP-100,2013-08-18 12:41:00,
2013-08-18 05:46:00,45.6,45.0,25.81,South,180,0.0,0.0,97,0.00,,,0.00,Rainwise IP-100,2013-08-18 12:46:00,
2013-08-18 05:51:00,45.4,44.0,25.81,SE,135,1.6,2.0,97,0.00,,,0.00,Rainwise IP-100,2013-08-18 12:51:00,
2013-08-18 05:56:00,45.2,44.0,25.80,SE,135,0.0,2.0,97,0.00,,,0.00,Rainwise IP-100,2013-08-18 12:56:00,
2013-08-18 06:01:00,45.1,44.0,25.81,SE,135,0.0,1.0,98,0.00,,,0.00,Rainwise IP-100,2013-08-18 13:01:00,
2013-08-18 06:06:00,45.0,44.0,25.80,SE,135,0.0,1.0,98,0.00,,,0.00,Rainwise IP-100,2013-08-18 13:06:00,
2013-08-18 06:11:00,44.9,45.0,25.81,SE,135,0.0,1.0,99,0.00,,,0.00,Rainwise IP-100,2013-08-18 13:11:00,
2013-08-18 06:16:00,44.7,44.0,25.81,SE,135,0.0,1.0,98,0.00,,,0.00,Rainwise IP-100,2013-08-18 13:16:00,
2013-08-18 06:21:00,44.6,44.0,25.81,SE,135,1.2,1.2,98,0.00,,,0.00,Rainwise IP-100,2013-08-18 13:21:00,
2013-08-18 06:26:00,44.6,44.0,25.81,SE,135,0.0,1.0,98,0.00,,,0.00,Rainwise IP-100,2013-08-18 13:26:00,
2013-08-18 06:31:00,44.6,45.0,25.81,SE,135,0.0,1.0,99,0.00,,,0.00,Rainwise IP-100,2013-08-18 13:31:00,
2013-08-18 06:36:00,44.5,45.0,25.81,SE,135,0.0,0.0,99,0.00,,,0.00,Rainwise IP-100,2013-08-18 13:36:00,
2013-08-18 06:41:00,44.5,45.0,25.81,SE,135,0.0,1.0,99,0.00,,,0.00,Rainwise IP-100,2013-08-18 13:41:00,
2013-08-18 06:46:00,44.5,45.0,25.81,SE,135,1.4,2.0,99,0.00,,,0.00,Rainwise IP-100,2013-08-18 13:46:00,
2013-08-18 06:51:00,44.6,45.0,25.82,SE,135,0.0,1.0,99,0.00,,,0.00,Rainwise IP-100,2013-08-18 13:51:00,
2013-08-18 06:56:00,44.6,45.0,25.82,SE,135,0.0,1.0,99,0.00,,,0.00,Rainwise IP-100,2013-08-18 13:56:00,
2013-08-18 07:01:00,44.6,45.0,25.82,SE,135,0.0,1.0,99,0.00,,,0.00,Rainwise IP-100,2013-08-18 14:01:00,
2013-08-18 07:06:00,44.6,45.0,25.81,SE,135,1.4,1.4,99,0.00,,,0.00,Rainwise IP-100,2013-08-18 14:06:00,
2013-08-18 07:11:00,44.6,45.0,25.81,SE,135,0.0,1.0,99,0.00,,,0.00,Rainwise IP-100,2013-08-18 14:11:00,
2013-08-18 07:16:00,44.6,45.0,25.81,SE,135,0.0,1.0,99,0.00,,,0.00,Rainwise IP-100,2013-08-18 14:16:00,
2013-08-18 07:21:00,44.6,45.0,25.81,SE,135,0.0,0.0,99,0.00,,,0.00,Rainwise IP-100,2013-08-18 14:21:00,
2013-08-18 07:26:00,44.6,45.0,25.81,SE,135,0.0,1.0,99,0.00,,,0.00,Rainwise IP-100,2013-08-18 14:26:00,
2013-08-18 07:31:00,44.6,45.0,25.82,SE,135,0.0,1.0,99,0.00,,,0.00,Rainwise IP-100,2013-08-18 14:31:00,
2013-08-18 07:36:00,44.6,45.0,25.81,SE,135,0.0,2.0,99,0.00,,,0.00,Rainwise IP-100,2013-08-18 14:36:00,
2013-08-18 07:41:00,44.6,45.0,25.81,SE,135,0.0,2.0,99,0.00,,,0.00,Rainwise IP-100,2013-08-18 14:41:00,
2013-08-18 07:46:00,44.7,45.0,25.81,SE,135,0.0,1.0,100,0.00,,,0.00,Rainwise IP-100,2013-08-18 14:46:00,
2013-08-18 07:51:00,44.7,45.0,25.82,SE,135,0.0,1.0,100,0.00,,,0.00,Rainwise IP-100,2013-08-18 14:51:00,
2013-08-18 07:56:00,44.9,45.0,25.82,SE,135,2.1,2.1,100,0.00,,,0.00,Rainwise IP-100,2013-08-18 14:56:00,
2013-08-18 08:01:00,45.1,45.0,25.82,SE,135,1.4,2.0,100,0.00,,,0.00,Rainwise IP-100,2013-08-18 15:01:00,
2013-08-18 08:06:00,45.2,45.0,25.82,SE,135,0.0,2.0,100,0.00,,,0.00,Rainwise IP-100,2013-08-18 15:06:00,
2013-08-18 08:11:00,45.3,45.0,25.82,SE,135,0.0,1.0,99,0.00,,,0.00,Rainwise IP-100,2013-08-18 15:11:00,
2013-08-18 08:16:00,45.4,45.0,25.82,SE,135,1.2,2.0,99,0.00,,,0.00,Rainwise IP-100,2013-08-18 15:16:00,
2013-08-18 08:21:00,45.5,46.0,25.82,SE,135,1.4,2.0,100,0.00,,,0.00,Rainwise IP-100,2013-08-18 15:21:00,
2013-08-18 08:26:00,45.7,46.0,25.82,SE,135,0.0,2.0,99,0.00,,,0.00,Rainwise IP-100,2013-08-18 15:26:00,
2013-08-18 08:31:00,45.9,46.0,25.82,SE,135,1.2,2.0,99,0.00,,,0.00,Rainwise IP-100,2013-08-18 15:31:00,
2013-08-18 08:36:00,46.1,46.0,25.82,SE,135,2.1,3.0,99,0.00,,,0.00,Rainwise IP-100,2013-08-18 15:36:00,
2013-08-18 08:41:00,46.3,46.0,25.82,SE,135,1.4,3.0,100,0.00,,,0.00,Rainwise IP-100,2013-08-18 15:41:00,
2013-08-18 08:46:00,46.5,47.0,25.82,SE,135,2.8,3.0,100,0.00,,,0.00,Rainwise IP-100,2013-08-18 15:46:00,
2013-08-18 08:51:00,46.8,47.0,25.82,SE,135,2.6,3.0,100,0.00,,,0.00,Rainwise IP-100,2013-08-18 15:51:00,
2013-08-18 08:56:00,47.1,47.0,25.81,SE,135,0.0,3.0,99,0.00,,,0.00,Rainwise IP-100,2013-08-18 15:56:00,
2013-08-18 09:01:00,47.4,47.0,25.82,ESE,112,1.4,2.0,99,0.00,,,0.00,Rainwise IP-100,2013-08-18 16:01:00,
2013-08-18 09:06:00,47.8,47.0,25.82,ESE,112,2.1,2.1,99,0.00,,,0.00,Rainwise IP-100,2013-08-18 16:06:00,
2013-08-18 09:11:00,48.1,48.0,25.82,ESE,112,0.0,2.0,99,0.00,,,0.00,Rainwise IP-100,2013-08-18 16:11:00,
2013-08-18 09:16:00,48.8,48.0,25.82,ESE,112,0.0,0.0,98,0.00,,,0.00,Rainwise IP-100,2013-08-18 16:16:00,
2013-08-18 09:21:00,49.6,49.0,25.82,ESE,112,0.0,2.0,96,0.00,,,0.00,Rainwise IP-100,2013-08-18 16:21:00,
2013-08-18 09:26:00,50.0,48.0,25.82,SE,135,1.9,3.0,95,0.00,,,0.00,Rainwise IP-100,2013-08-18 16:26:00,
2013-08-18 09:31:00,50.2,49.0,25.82,ESE,112,0.0,2.0,96,0.00,,,0.00,Rainwise IP-100,2013-08-18 16:31:00,
2013-08-18 09:36:00,50.8,49.0,25.82,ESE,112,1.6,1.6,95,0.00,,,0.00,Rainwise IP-100,2013-08-18 16:36:00,
2013-08-18 09:41:00,51.4,50.0,25.82,East,90,0.0,1.0,94,0.00,,,0.00,Rainwise IP-100,2013-08-18 16:41:00,
2013-08-18 09:46:00,52.1,49.0,25.82,East,90,0.0,0.0,91,0.00,,,0.00,Rainwise IP-100,2013-08-18 16:46:00,
2013-08-18 09:51:00,53.1,49.0,25.83,ESE,112,1.4,0.0,88,0.00,,,0.00,Rainwise IP-100,2013-08-18 16:51:00,
2013-08-18 09:56:00,54.3,49.0,25.83,ESE,112,0.0,2.0,84,0.00,,,0.00,Rainwise IP-100,2013-08-18 16:56:00,
2013-08-18 10:01:00,55.2,50.0,25.83,ESE,112,0.0,2.0,81,0.00,,,0.00,Rainwise IP-100,2013-08-18 17:01:00,
2013-08-18 10:06:00,56.4,50.0,25.83,ENE,67,0.0,1.0,79,0.00,,,0.00,Rainwise IP-100,2013-08-18 17:06:00,
2013-08-18 10:11:00,57.5,50.0,25.83,East,90,0.0,0.0,77,0.00,,,0.00,Rainwise IP-100,2013-08-18 17:11:00,
2013-08-18 10:16:00,58.4,50.0,25.83,East,90,0.0,0.0,76,0.00,,,0.00,Rainwise IP-100,2013-08-18 17:16:00,
2013-08-18 10:21:00,58.6,51.0,25.83,SSE,157,0.0,1.0,75,0.00,,,0.00,Rainwise IP-100,2013-08-18 17:21:00,
2013-08-18 10:26:00,59.3,50.0,25.83,ENE,67,0.0,2.0,73,0.00,,,0.00,Rainwise IP-100,2013-08-18 17:26:00,
2013-08-18 10:31:00,60.4,51.0,25.83,NNE,22,0.0,3.0,71,0.00,,,0.00,Rainwise IP-100,2013-08-18 17:31:00,
2013-08-18 10:36:00,61.0,50.0,25.83,NNW,337,1.6,4.0,69,0.00,,,0.00,Rainwise IP-100,2013-08-18 17:36:00,
2013-08-18 10:41:00,61.5,50.0,25.83,NNW,337,1.2,3.0,67,0.00,,,0.00,Rainwise IP-100,2013-08-18 17:41:00,
2013-08-18 10:46:00,62.0,51.0,25.83,NNE,22,0.0,3.0,67,0.00,,,0.00,Rainwise IP-100,2013-08-18 17:46:00,
2013-08-18 10:51:00,62.6,51.0,25.83,North,360,0.0,0.0,67,0.00,,,0.00,Rainwise IP-100,2013-08-18 17:51:00,
2013-08-18 10:56:00,63.2,51.0,25.83,NNW,337,2.3,2.3,66,0.00,,,0.00,Rainwise IP-100,2013-08-18 17:56:00,
2013-08-18 11:01:00,63.5,51.0,25.84,North,360,3.3,5.0,64,0.00,,,0.00,Rainwise IP-100,2013-08-18 18:01:00,
2013-08-18 11:06:00,63.3,50.0,25.84,NNW,337,5.8,7.0,63,0.00,,,0.00,Rainwise IP-100,2013-08-18 18:06:00,
2013-08-18 11:11:00,62.8,50.0,25.83,NNW,337,2.6,8.0,63,0.00,,,0.00,Rainwise IP-100,2013-08-18 18:11:00,
2013-08-18 11:16:00,62.7,50.0,25.83,NNW,337,5.1,6.0,63,0.00,,,0.00,Rainwise IP-100,2013-08-18 18:16:00,
2013-08-18 11:21:00,62.9,50.0,25.83,NNW,337,5.1,7.0,63,0.00,,,0.00,Rainwise IP-100,2013-08-18 18:21:00,
2013-08-18 11:26:00,62.8,49.0,25.83,NNW,337,3.7,7.0,62,0.00,,,0.00,Rainwise IP-100,2013-08-18 18:26:00,
2013-08-18 11:31:00,62.7,49.0,25.83,NNW,337,4.9,9.0,62,0.00,,,0.00,Rainwise IP-100,2013-08-18 18:31:00,
2013-08-18 11:36:00,62.7,49.0,25.83,NNW,337,4.2,7.0,61,0.00,,,0.00,Rainwise IP-100,2013-08-18 18:36:00,
2013-08-18 11:41:00,62.8,48.0,25.83,NNW,337,2.6,6.0,60,0.00,,,0.00,Rainwise IP-100,2013-08-18 18:41:00,
2013-08-18 11:46:00,63.1,49.0,25.83,NNE,22,3.0,5.0,61,0.00,,,0.00,Rainwise IP-100,2013-08-18 18:46:00,
2013-08-18 11:51:00,63.7,49.0,25.83,NW,315,6.1,6.1,60,0.00,,,0.00,Rainwise IP-100,2013-08-18 18:51:00,
2013-08-18 11:56:00,64.2,49.0,25.83,NNW,337,6.1,7.0,59,0.00,,,0.00,Rainwise IP-100,2013-08-18 18:56:00,
2013-08-18 12:01:00,64.4,50.0,25.84,NW,315,6.3,8.0,59,0.00,,,0.00,Rainwise IP-100,2013-08-18 19:01:00,
2013-08-18 12:06:00,64.6,50.0,25.84,NNW,337,6.3,8.0,59,0.00,,,0.00,Rainwise IP-100,2013-08-18 19:06:00,
2013-08-18 12:11:00,64.9,50.0,25.84,NW,315,3.5,7.0,59,0.00,,,0.00,Rainwise IP-100,2013-08-18 19:11:00,
2013-08-18 12:16:00,65.1,50.0,25.83,NNW,337,6.1,6.1,58,0.00,,,0.00,Rainwise IP-100,2013-08-18 19:16:00,
2013-08-18 12:21:00,65.2,50.0,25.83,NNW,337,2.8,8.0,58,0.00,,,0.00,Rainwise IP-100,2013-08-18 19:21:00,
2013-08-18 12:26:00,65.4,50.0,25.82,NNW,337,6.3,7.0,58,0.00,,,0.00,Rainwise IP-100,2013-08-18 19:26:00,
2013-08-18 12:31:00,65.6,50.0,25.83,NNW,337,2.1,7.0,57,0.00,,,0.00,Rainwise IP-100,2013-08-18 19:31:00,
2013-08-18 12:36:00,65.9,50.0,25.83,NNW,337,4.0,6.0,57,0.00,,,0.00,Rainwise IP-100,2013-08-18 19:36:00,
2013-08-18 12:41:00,66.2,50.0,25.82,NNW,337,4.0,7.0,57,0.00,,,0.00,Rainwise IP-100,2013-08-18 19:41:00,
2013-08-18 12:46:00,66.5,50.0,25.82,NNW,337,6.1,9.0,56,0.00,,,0.00,Rainwise IP-100,2013-08-18 19:46:00,
2013-08-18 12:51:00,66.8,50.0,25.83,NNW,337,5.8,10.0,56,0.00,,,0.00,Rainwise IP-100,2013-08-18 19:51:00,
2013-08-18 12:56:00,67.0,51.0,25.83,North,360,3.7,8.0,56,0.00,,,0.00,Rainwise IP-100,2013-08-18 19:56:00,
2013-08-18 13:01:00,66.8,50.0,25.83,NW,315,4.2,10.0,56,0.00,,,0.00,Rainwise IP-100,2013-08-18 20:01:00,
2013-08-18 13:06:00,66.3,50.0,25.82,NW,315,3.7,9.0,56,0.00,,,0.00,Rainwise IP-100,2013-08-18 20:06:00,
2013-08-18 13:11:00,65.8,49.0,25.82,NNW,337,7.5,11.0,56,0.00,,,0.00,Rainwise IP-100,2013-08-18 20:11:00,
2013-08-18 13:16:00,65.7,49.0,25.83,NNW,337,6.5,10.0,56,0.00,,,0.00,Rainwise IP-100,2013-08-18 20:16:00,
2013-08-18 13:21:00,65.7,49.0,25.83,NNE,22,3.3,11.0,56,0.00,,,0.00,Rainwise IP-100,2013-08-18 20:21:00,
2013-08-18 13:26:00,66.0,50.0,25.83,North,360,6.1,9.0,57,0.00,,,0.00,Rainwise IP-100,2013-08-18 20:26:00,
2013-08-18 13:31:00,66.2,50.0,25.82,North,360,8.2,10.0,57,0.00,,,0.00,Rainwise IP-100,2013-08-18 20:31:00,
2013-08-18 13:36:00,66.3,50.0,25.83,NNW,337,6.5,12.0,57,0.00,,,0.00,Rainwise IP-100,2013-08-18 20:36:00,
2013-08-18 13:41:00,66.4,50.0,25.83,NNW,337,5.1,11.0,57,0.00,,,0.00,Rainwise IP-100,2013-08-18 20:41:00,
2013-08-18 13:46:00,66.1,50.0,25.83,NNW,337,2.8,13.0,57,0.00,,,0.00,Rainwise IP-100,2013-08-18 20:46:00,
2013-08-18 13:51:00,66.0,50.0,25.84,NNW,337,6.8,10.0,58,0.00,,,0.00,Rainwise IP-100,2013-08-18 20:51:00,
2013-08-18 13:56:00,66.0,51.0,25.84,NNW,337,5.8,13.0,60,0.00,,,0.00,Rainwise IP-100,2013-08-18 20:56:00,
2013-08-18 14:01:00,65.7,51.0,25.84,NNE,22,4.0,10.0,61,0.00,,,0.00,Rainwise IP-100,2013-08-18 21:01:00,
2013-08-18 14:06:00,65.4,52.0,25.84,NNW,337,7.0,12.0,62,0.00,,,0.00,Rainwise IP-100,2013-08-18 21:06:00,
2013-08-18 14:11:00,65.3,52.0,25.84,North,360,6.8,10.0,63,0.00,,,0.00,Rainwise IP-100,2013-08-18 21:11:00,
2013-08-18 14:16:00,65.5,53.0,25.84,WNW,292,8.4,10.0,64,0.00,,,0.00,Rainwise IP-100,2013-08-18 21:16:00,
2013-08-18 14:21:00,65.6,53.0,25.84,North,360,6.1,13.0,65,0.00,,,0.00,Rainwise IP-100,2013-08-18 21:21:00,
2013-08-18 14:26:00,65.6,53.0,25.84,NNW,337,3.5,14.0,65,0.00,,,0.00,Rainwise IP-100,2013-08-18 21:26:00,
2013-08-18 14:31:00,65.7,53.0,25.84,NNW,337,8.4,9.0,65,0.00,,,0.00,Rainwise IP-100,2013-08-18 21:31:00,
2013-08-18 14:36:00,66.0,54.0,25.84,NNW,337,4.9,11.0,65,0.00,,,0.00,Rainwise IP-100,2013-08-18 21:36:00,
2013-08-18 14:41:00,66.2,54.0,25.84,NNW,337,3.3,12.0,64,0.00,,,0.00,Rainwise IP-100,2013-08-18 21:41:00,
2013-08-18 14:46:00,66.4,54.0,25.84,NNW,337,8.6,11.0,64,0.00,,,0.00,Rainwise IP-100,2013-08-18 21:46:00,
2013-08-18 14:51:00,66.4,54.0,25.84,NNE,22,4.9,10.0,64,0.00,,,0.00,Rainwise IP-100,2013-08-18 21:51:00,
2013-08-18 14:56:00,66.0,54.0,25.84,NNW,337,3.0,8.0,65,0.00,,,0.00,Rainwise IP-100,2013-08-18 21:56:00,
2013-08-18 15:01:00,65.3,53.0,25.84,NNW,337,5.8,6.0,66,0.00,,,0.00,Rainwise IP-100,2013-08-18 22:01:00,
2013-08-18 15:06:00,64.8,53.0,25.84,North,360,2.8,9.0,67,0.00,,,0.00,Rainwise IP-100,2013-08-18 22:06:00,
2013-08-18 15:11:00,64.5,53.0,25.84,NNE,22,4.7,8.0,68,0.00,,,0.00,Rainwise IP-100,2013-08-18 22:11:00,
2013-08-18 15:16:00,64.3,53.0,25.84,NNW,337,3.5,10.0,68,0.00,,,0.00,Rainwise IP-100,2013-08-18 22:16:00,
2013-08-18 15:21:00,64.0,53.0,25.84,NNW,337,6.3,9.0,68,0.00,,,0.00,Rainwise IP-100,2013-08-18 22:21:00,
2013-08-18 15:26:00,63.6,53.0,25.84,North,360,4.2,9.0,69,0.00,,,0.00,Rainwise IP-100,2013-08-18 22:26:00,
2013-08-18 15:31:00,63.3,53.0,25.84,WNW,292,1.6,8.0,70,0.00,,,0.00,Rainwise IP-100,2013-08-18 22:31:00,
2013-08-18 15:36:00,63.3,53.0,25.84,NW,315,3.7,7.0,70,0.00,,,0.00,Rainwise IP-100,2013-08-18 22:36:00,
2013-08-18 15:41:00,63.4,53.0,25.84,NNW,337,1.6,9.0,70,0.00,,,0.00,Rainwise IP-100,2013-08-18 22:41:00,
2013-08-18 15:46:00,63.4,53.0,25.84,NNW,337,2.3,6.0,69,0.00,,,0.00,Rainwise IP-100,2013-08-18 22:46:00,
2013-08-18 15:51:00,63.3,53.0,25.84,NNE,22,6.5,9.0,69,0.00,,,0.00,Rainwise IP-100,2013-08-18 22:51:00,
2013-08-18 15:56:00,63.1,53.0,25.84,NNE,22,0.0,8.0,70,0.00,,,0.00,Rainwise IP-100,2013-08-18 22:56:00,
2013-08-18 16:01:00,63.0,53.0,25.84,NNE,22,0.0,6.0,70,0.00,,,0.00,Rainwise IP-100,2013-08-18 23:01:00,
2013-08-18 16:06:00,63.1,53.0,25.84,NNE,22,4.0,7.0,70,0.00,,,0.00,Rainwise IP-100,2013-08-18 23:06:00,
2013-08-18 16:11:00,63.2,53.0,25.84,NNW,337,4.7,8.0,70,0.00,,,0.00,Rainwise IP-100,2013-08-18 23:11:00,
2013-08-18 16:16:00,62.9,53.0,25.84,NNW,337,4.4,7.0,70,0.00,,,0.00,Rainwise IP-100,2013-08-18 23:16:00,
2013-08-18 16:21:00,62.6,53.0,25.84,NNE,22,0.0,7.0,70,0.00,,,0.00,Rainwise IP-100,2013-08-18 23:21:00,
2013-08-18 16:26:00,62.6,53.0,25.84,NNE,22,0.0,6.0,71,0.00,,,0.00,Rainwise IP-100,2013-08-18 23:26:00,
2013-08-18 16:31:00,62.6,53.0,25.84,NNE,22,1.6,4.0,71,0.00,,,0.00,Rainwise IP-100,2013-08-18 23:31:00,
2013-08-18 16:36:00,62.6,53.0,25.84,NNE,22,1.6,4.0,71,0.00,,,0.00,Rainwise IP-100,2013-08-18 23:36:00,
2013-08-18 16:41:00,62.6,53.0,25.84,NNE,22,3.5,4.0,72,0.00,,,0.00,Rainwise IP-100,2013-08-18 23:41:00,
2013-08-18 16:46:00,62.6,53.0,25.84,NNE,22,2.8,6.0,72,0.00,,,0.00,Rainwise IP-100,2013-08-18 23:46:00,
2013-08-18 16:51:00,62.6,53.0,25.84,ENE,67,0.0,8.0,72,0.00,,,0.00,Rainwise IP-100,2013-08-18 23:51:00,
2013-08-18 16:56:00,62.6,53.0,25.83,NNW,337,2.8,6.0,72,0.00,,,0.00,Rainwise IP-100,2013-08-18 23:56:00,
2013-08-18 17:01:00,62.8,53.0,25.83,North,360,5.6,6.0,71,0.00,,,0.00,Rainwise IP-100,2013-08-19 00:01:00,
2013-08-18 17:06:00,62.8,53.0,25.84,NNW,337,4.9,7.0,71,0.00,,,0.00,Rainwise IP-100,2013-08-19 00:06:00,
2013-08-18 17:11:00,62.6,53.0,25.84,NNW,337,5.6,7.0,71,0.00,,,0.00,Rainwise IP-100,2013-08-19 00:11:00,
2013-08-18 17:16:00,62.5,53.0,25.83,NNE,22,2.3,5.0,72,0.00,,,0.00,Rainwise IP-100,2013-08-19 00:16:00,
2013-08-18 17:21:00,62.3,53.0,25.83,NNW,337,3.7,6.0,72,0.00,,,0.00,Rainwise IP-100,2013-08-19 00:21:00,
2013-08-18 17:26:00,62.1,53.0,25.83,NNW,337,3.0,6.0,72,0.00,,,0.00,Rainwise IP-100,2013-08-19 00:26:00,
2013-08-18 17:31:00,62.0,53.0,25.83,NNE,22,2.8,5.0,73,0.00,,,0.00,Rainwise IP-100,2013-08-19 00:31:00,
2013-08-18 17:36:00,61.9,53.0,25.83,North,360,5.6,7.0,73,0.00,,,0.00,Rainwise IP-100,2013-08-19 00:36:00,
2013-08-18 17:41:00,61.8,53.0,25.83,NNW,337,3.5,6.0,73,0.00,,,0.00,Rainwise IP-100,2013-08-19 00:41:00,
2013-08-18 17:46:00,61.6,53.0,25.83,NNE,22,4.7,5.0,74,0.00,,,0.00,Rainwise IP-100,2013-08-19 00:46:00,
2013-08-18 17:51:00,61.3,53.0,25.83,North,360,4.2,7.0,74,0.00,,,0.00,Rainwise IP-100,2013-08-19 00:51:00,
2013-08-18 17:56:00,61.0,53.0,25.83,NNE,22,4.0,6.0,75,0.00,,,0.00,Rainwise IP-100,2013-08-19 00:56:00,
2013-08-18 18:01:00,60.8,53.0,25.83,NNW,337,3.5,7.0,76,0.00,,,0.00,Rainwise IP-100,2013-08-19 01:01:00,
2013-08-18 18:06:00,60.5,53.0,25.83,East,90,0.0,10.0,76,0.00,,,0.00,Rainwise IP-100,2013-08-19 01:06:00,
2013-08-18 18:11:00,60.2,53.0,25.83,NNE,22,5.8,9.0,77,0.00,,,0.00,Rainwise IP-100,2013-08-19 01:11:00,
2013-08-18 18:16:00,59.9,53.0,25.82,NNE,22,3.3,7.0,78,0.00,,,0.00,Rainwise IP-100,2013-08-19 01:16:00,
2013-08-18 18:21:00,59.7,53.0,25.83,NNW,337,3.3,8.0,78,0.00,,,0.00,Rainwise IP-100,2013-08-19 01:21:00,
2013-08-18 18:26:00,59.5,53.0,25.83,North,360,1.9,5.0,79,0.00,,,0.00,Rainwise IP-100,2013-08-19 01:26:00,
2013-08-18 18:31:00,59.3,53.0,25.83,NNW,337,1.2,6.0,80,0.00,,,0.00,Rainwise IP-100,2013-08-19 01:31:00,
2013-08-18 18:36:00,59.1,53.0,25.82,NNE,22,0.0,4.0,80,0.00,,,0.00,Rainwise IP-100,2013-08-19 01:36:00,
2013-08-18 18:41:00,59.1,53.0,25.82,NNW,337,3.3,4.0,80,0.00,,,0.00,Rainwise IP-100,2013-08-19 01:41:00,
2013-08-18 18:46:00,58.9,53.0,25.82,NNW,337,3.7,4.0,81,0.00,,,0.00,Rainwise IP-100,2013-08-19 01:46:00,
2013-08-18 18:51:00,58.8,53.0,25.82,NNW,337,2.6,4.0,81,0.00,,,0.00,Rainwise IP-100,2013-08-19 01:51:00,
2013-08-18 18:56:00,58.6,53.0,25.82,NNE,22,1.4,4.0,82,0.00,,,0.00,Rainwise IP-100,2013-08-19 01:56:00,
2013-08-18 19:01:00,58.5,53.0,25.82,ENE,67,0.0,3.0,82,0.00,,,0.00,Rainwise IP-100,2013-08-19 02:01:00,
2013-08-18 19:06:00,58.5,53.0,25.82,NNW,337,3.3,3.3,82,0.00,,,0.00,Rainwise IP-100,2013-08-19 02:06:00,
2013-08-18 19:11:00,58.5,53.0,25.82,NNW,337,2.3,4.0,82,0.00,,,0.00,Rainwise IP-100,2013-08-19 02:11:00,
2013-08-18 19:16:00,58.4,53.0,25.82,NNW,337,2.3,6.0,82,0.00,,,0.00,Rainwise IP-100,2013-08-19 02:16:00,
2013-08-18 19:21:00,58.3,53.0,25.82,NNE,22,1.6,6.0,83,0.00,,,0.00,Rainwise IP-100,2013-08-19 02:21:00,
2013-08-18 19:26:00,58.1,53.0,25.82,North,360,4.0,6.0,83,0.00,,,0.00,Rainwise IP-100,2013-08-19 02:26:00,
2013-08-18 19:31:00,57.8,53.0,25.82,NNE,22,1.6,7.0,84,0.00,,,0.00,Rainwise IP-100,2013-08-19 02:31:00,
2013-08-18 19:36:00,57.4,53.0,25.82,NNE,22,0.0,6.0,85,0.00,,,0.00,Rainwise IP-100,2013-08-19 02:36:00,
2013-08-18 19:41:00,57.1,53.0,25.82,NNE,22,1.4,6.0,86,0.00,,,0.00,Rainwise IP-100,2013-08-19 02:41:00,
2013-08-18 19:46:00,56.8,53.0,25.82,NNW,337,1.2,6.0,87,0.00,,,0.00,Rainwise IP-100,2013-08-19 02:46:00,
2013-08-18 19:51:00,56.6,53.0,25.82,NNW,337,4.4,4.4,87,0.00,,,0.00,Rainwise IP-100,2013-08-19 02:51:00,
2013-08-18 19:56:00,56.5,53.0,25.82,NNW,337,3.5,5.0,88,0.00,,,0.00,Rainwise IP-100,2013-08-19 02:56:00,
2013-08-18 20:01:00,56.3,53.0,25.82,NNW,337,2.8,4.0,88,0.00,,,0.00,Rainwise IP-100,2013-08-19 03:01:00,
2013-08-18 20:06:00,56.2,53.0,25.82,NNW,337,2.1,5.0,88,0.00,,,0.00,Rainwise IP-100,2013-08-19 03:06:00,
2013-08-18 20:11:00,56.1,53.0,25.82,NNE,22,1.2,5.0,89,0.00,,,0.00,Rainwise IP-100,2013-08-19 03:11:00,
2013-08-18 20:16:00,56.0,53.0,25.82,NNW,337,2.8,4.0,89,0.00,,,0.00,Rainwise IP-100,2013-08-19 03:16:00,
2013-08-18 20:21:00,55.8,53.0,25.82,NNW,337,3.5,3.5,90,0.00,,,0.00,Rainwise IP-100,2013-08-19 03:21:00,
2013-08-18 20:26:00,55.7,53.0,25.81,NNW,337,1.4,4.0,90,0.00,,,0.00,Rainwise IP-100,2013-08-19 03:26:00,
2013-08-18 20:31:00,55.7,53.0,25.81,NNW,337,2.1,3.0,90,0.00,,,0.00,Rainwise IP-100,2013-08-19 03:31:00,
2013-08-18 20:36:00,55.7,53.0,25.82,NNW,337,0.0,2.0,90,0.00,,,0.00,Rainwise IP-100,2013-08-19 03:36:00,
2013-08-18 20:41:00,55.7,53.0,25.82,NNW,337,1.6,2.0,90,0.00,,,0.00,Rainwise IP-100,2013-08-19 03:41:00,
2013-08-18 20:46:00,55.6,53.0,25.82,NNW,337,1.6,2.0,90,0.00,,,0.00,Rainwise IP-100,2013-08-19 03:46:00,
2013-08-18 20:51:00,55.5,53.0,25.82,NNW,337,2.3,2.3,91,0.00,,,0.00,Rainwise IP-100,2013-08-19 03:51:00,
2013-08-18 20:56:00,55.5,53.0,25.82,NNW,337,2.3,4.0,91,0.00,,,0.00,Rainwise IP-100,2013-08-19 03:56:00,
2013-08-18 21:01:00,55.4,53.0,25.82,North,360,2.1,3.0,91,0.00,,,0.00,Rainwise IP-100,2013-08-19 04:01:00,
2013-08-18 21:06:00,55.3,53.0,25.81,North,360,1.6,3.0,91,0.00,,,0.00,Rainwise IP-100,2013-08-19 04:06:00,
2013-08-18 21:11:00,55.1,53.0,25.81,NNW,337,2.3,4.0,92,0.00,,,0.00,Rainwise IP-100,2013-08-19 04:11:00,
2013-08-18 21:16:00,55.0,53.0,25.81,NNW,337,3.0,3.0,92,0.00,,,0.00,Rainwise IP-100,2013-08-19 04:16:00,
2013-08-18 21:21:00,54.9,53.0,25.82,NNW,337,2.8,3.0,93,0.00,,,0.00,Rainwise IP-100,2013-08-19 04:21:00,
2013-08-18 21:26:00,54.8,53.0,25.81,North,360,2.6,5.0,93,0.00,,,0.00,Rainwise IP-100,2013-08-19 04:26:00,
2013-08-18 21:31:00,54.6,53.0,25.82,NNE,22,0.0,4.0,93,0.00,,,0.00,Rainwise IP-100,2013-08-19 04:31:00,
2013-08-18 21:36:00,54.4,53.0,25.82,North,360,1.6,6.0,94,0.00,,,0.00,Rainwise IP-100,2013-08-19 04:36:00,
2013-08-18 21:41:00,54.3,52.0,25.82,North,360,4.2,5.0,94,0.00,,,0.00,Rainwise IP-100,2013-08-19 04:41:00,
2013-08-18 21:47:00,54.0,52.0,25.82,NE,45,0.0,7.0,94,0.00,,,0.00,Rainwise IP-100,2013-08-19 04:47:00,
2013-08-18 21:51:00,53.7,52.0,25.82,North,360,2.6,6.0,95,0.00,,,0.00,Rainwise IP-100,2013-08-19 04:51:00,
2013-08-18 21:56:00,53.6,52.0,25.82,North,360,1.9,4.0,95,0.00,,,0.00,Rainwise IP-100,2013-08-19 04:56:00,
2013-08-18 22:01:00,53.5,52.0,25.82,NNW,337,1.9,4.0,95,0.00,,,0.00,Rainwise IP-100,2013-08-19 05:01:00,
2013-08-18 22:06:00,53.3,51.0,25.82,NNW,337,2.3,4.0,96,0.00,,,0.00,Rainwise IP-100,2013-08-19 05:06:00,
2013-08-18 22:11:00,53.2,51.0,25.82,NNW,337,1.4,3.0,96,0.00,,,0.00,Rainwise IP-100,2013-08-19 05:11:00,
2013-08-18 22:17:00,53.2,52.0,25.82,North,360,1.9,3.0,97,0.00,,,0.00,Rainwise IP-100,2013-08-19 05:17:00,
2013-08-18 22:22:00,53.1,52.0,25.82,NNW,337,1.6,3.0,97,0.00,,,0.00,Rainwise IP-100,2013-08-19 05:22:00,
2013-08-18 22:27:00,53.1,51.0,25.82,NNW,337,0.0,2.0,96,0.00,,,0.00,Rainwise IP-100,2013-08-19 05:27:00,
2013-08-18 22:32:00,53.2,51.0,25.82,NNW,337,1.9,2.0,96,0.00,,,0.00,Rainwise IP-100,2013-08-19 05:32:00,
2013-08-18 22:37:00,53.2,51.0,25.82,NNW,337,1.6,3.0,96,0.00,,,0.00,Rainwise IP-100,2013-08-19 05:37:00,
2013-08-18 22:42:00,53.3,51.0,25.81,NNW,337,1.2,2.0,96,0.00,,,0.00,Rainwise IP-100,2013-08-19 05:42:00,
2013-08-18 22:47:00,53.3,51.0,25.82,NNW,337,0.0,3.0,96,0.00,,,0.00,Rainwise IP-100,2013-08-19 05:47:00,
2013-08-18 22:52:00,53.3,51.0,25.81,NNW,337,1.4,3.0,96,0.00,,,0.00,Rainwise IP-100,2013-08-19 05:52:00,
2013-08-18 22:57:00,53.3,51.0,25.82,NNW,337,2.3,2.3,96,0.00,,,0.00,Rainwise IP-100,2013-08-19 05:57:00,
2013-08-18 23:02:00,53.2,51.0,25.82,NNW,337,1.9,2.0,96,0.00,,,0.00,Rainwise IP-100,2013-08-19 06:02:00,
2013-08-18 23:07:00,53.1,52.0,25.82,NNW,337,1.6,2.0,97,0.00,,,0.00,Rainwise IP-100,2013-08-19 06:07:00,
2013-08-18 23:12:00,53.1,52.0,25.81,NNW,337,0.0,2.0,97,0.00,,,0.00,Rainwise IP-100,2013-08-19 06:12:00,
2013-08-18 23:17:00,53.0,52.0,25.81,NNW,337,0.0,1.0,97,0.00,,,0.00,Rainwise IP-100,2013-08-19 06:17:00,
2013-08-18 23:22:00,52.9,52.0,25.81,NNW,337,0.0,1.0,97,0.00,,,0.00,Rainwise IP-100,2013-08-19 06:22:00,
2013-08-18 23:27:00,52.8,52.0,25.81,NNW,337,0.0,1.0,97,0.00,,,0.00,Rainwise IP-100,2013-08-19 06:27:00,
2013-08-18 23:32:00,52.7,52.0,25.81,NNW,337,1.6,2.0,97,0.00,,,0.00,Rainwise IP-100,2013-08-19 06:32:00,
2013-08-18 23:37:00,52.6,52.0,25.81,NNW,337,0.0,2.0,97,0.00,,,0.00,Rainwise IP-100,2013-08-19 06:37:00,
2013-08-18 23:42:00,52.3,51.0,25.81,NNW,337,0.0,0.0,97,0.00,,,0.00,Rainwise IP-100,2013-08-19 06:42:00,
2013-08-18 23:47:00,52.0,51.0,25.80,NE,45,0.0,1.0,97,0.00,,,0.00,Rainwise IP-100,2013-08-19 06:47:00,
2013-08-18 23:52:00,51.8,51.0,25.81,East,90,0.0,0.0,97,0.00,,,0.00,Rainwise IP-100,2013-08-19 06:52:00,
2013-08-18 23:57:00,51.6,51.0,25.81,East,90,0.0,0.0,97,0.00,,,0.00,Rainwise IP-100,2013-08-19 06:57:00,